Location: Saint-Maurice-d�Ard�che
(44.5216°N, 4.4002°E)
Time: 16:04:29
(UTC+00:00)

Cosmos 967 Rocket - Pass Details

Date: 30 March 2020
Orbit: 943 x 994 km, 65.8° (Epoch: 27 May)

Event Time Altitude Azimuth Distance (km) Brightness Sun altitude
Rises 20:13:48 0° 203° (SSW) 3,662 7.4 -22.0°
Reaches altitude 10° 20:16:21 10° 201° (SSW) 2,725 6.7 -22.4°
Maximum altitude 20:22:42 70° 119° (ESE) 1,050 4.4 -23.3°
Drops below altitude 10° 20:29:08 10° 37° (NE) 2,764 6.8 -24.3°
Sets 20:31:45 0° 36° (NE) 3,719 7.5 -24.7°
